Weather History for Castroville, TX

Change the Weather History Date:

Tuesday, March 19, 2013

  Actual Average (KSKF) Record (KSKF)
Temperature  
Mean Temperature 68 °F -  
Max Temperature 86 °F 72 °F 87 °F (2006)
Min Temperature 52 °F 51 °F 39 °F (2001)
Cooling Degree Days 4    
Growing Degree Days 18 (Base 50)    
Moisture  
Dew Point 51 °F    
Average Humidity 51    
Maximum Humidity 64    
Minimum Humidity 35    
Precipitation  
Precipitation 0.00 in - - ()
Sea Level Pressure  
Sea Level Pressure 29.93 in    
Wind  
Wind Speed 6 mph (ESE)    
Max Wind Speed 14 mph    
Max Gust Speed 21 mph    
Visibility 9 miles    
Events      
Averages and records for this station are not official NWS values.
T = Trace of Precipitation, MM = Missing Value Source: NWS Daily Summary

Daily Weather History Graph

Daily Weather History Graph

Search for Another Location

Airport:

Trip Planner

Search our weather history database for the weather conditions in past years. The results will help you decide how hot, cold, wet, or windy it might be!

Date:

Astronomy

Mar. 19, 2013 Rise Set
Actual Time 7:40 AM CDT 7:46 PM CDT
Civil Twilight 7:16 AM CDT 8:10 PM CDT
Nautical Twilight 6:48 AM CDT 8:37 PM CDT
Astronomical Twilight 6:20 AM CDT 9:05 PM CDT
Moon 12:56 PM CDT (3/19) 2:09 AM CDT (3/19)
Length of Visible Light 12h 53m
Length of Day
12h 06m
Waxing Crescent, 50% of the Moon is Illuminated
Mar 19
Waxing Crescent
Mar 19
First Quarter
Mar 27
Full
Apr 2
Last Quarter
Apr 10
New

Hourly Weather History & Observations

Time (CDT) Temp. Heat Index Dew Point Humidity Pressure Visibility Wind Dir Wind Speed Gust Speed Precip Events Conditions
12:15 AM 68.4 °F - 42.1 °F 38% 29.94 in 10.0 mi NE 5.8 mph - N/A   Clear
12:35 AM 67.3 °F - 42.8 °F 41% 29.94 in 10.0 mi NE 4.6 mph - N/A   Clear
12:55 AM 65.7 °F - 43.0 °F 44% 29.94 in 10.0 mi NE 3.5 mph - N/A   Clear
1:15 AM 64.4 °F - 42.8 °F 45% 29.95 in 10.0 mi ENE 3.5 mph - N/A   Clear
1:35 AM 62.6 °F - 43.5 °F 50% 29.95 in 10.0 mi ENE 3.5 mph - N/A   Clear
1:55 AM 63.5 °F - 44.1 °F 49% 29.95 in 10.0 mi ENE 6.9 mph - N/A   Clear
2:15 AM 63.5 °F - 44.1 °F 49% 29.95 in 10.0 mi NE 5.8 mph - N/A   Clear
2:35 AM 62.8 °F - 44.2 °F 51% 29.95 in 10.0 mi NNE 4.6 mph - N/A   Clear
2:55 AM 62.1 °F - 44.4 °F 52% 29.95 in 10.0 mi ENE 6.9 mph - N/A   Clear
3:15 AM 61.9 °F - 43.9 °F 52% 29.96 in 10.0 mi East 5.8 mph - N/A   Clear
3:35 AM 61.7 °F - 43.7 °F 52% 29.97 in 10.0 mi East 8.1 mph - N/A   Clear
3:55 AM 60.6 °F - 43.5 °F 53% 29.97 in 10.0 mi East 4.6 mph - N/A   Clear
4:15 AM 59.9 °F - 43.2 °F 54% 29.97 in 10.0 mi ENE 6.9 mph - N/A   Clear
4:35 AM 58.8 °F - 43.0 °F 56% 29.96 in 10.0 mi ENE 5.8 mph - N/A   Clear
4:55 AM 58.1 °F - 43.0 °F 57% 29.96 in 10.0 mi NE 5.8 mph - N/A   Clear
5:15 AM 57.4 °F - 43.0 °F 59% 29.96 in 10.0 mi NE 4.6 mph - N/A   Clear
5:35 AM 56.3 °F - 42.6 °F 60% 29.95 in 10.0 mi NNE 4.6 mph - N/A   Clear
5:55 AM 55.2 °F - 42.1 °F 61% 29.95 in 10.0 mi North 5.8 mph - N/A   Clear
6:15 AM 55.4 °F - 42.4 °F 62% 29.96 in 10.0 mi NNE 4.6 mph - N/A   Clear
6:35 AM 54.5 °F - 42.1 °F 63% 29.97 in 10.0 mi NE 3.5 mph - N/A   Clear
6:55 AM 55.6 °F - 42.8 °F 62% 29.97 in 10.0 mi Calm Calm - N/A   Clear
7:15 AM 54.9 °F - 42.4 °F 63% 29.98 in 10.0 mi Calm Calm - N/A   Clear
7:35 AM 53.6 °F - 40.5 °F 61% 29.98 in 10.0 mi Calm Calm - N/A   Clear
7:55 AM 52.2 °F - 38.8 °F 60% 29.99 in 10.0 mi Calm Calm - N/A   Clear
8:15 AM 53.1 °F - 41.2 °F 64% 29.99 in 10.0 mi Calm Calm - N/A   Clear
8:35 AM 55.9 °F - 42.8 °F 61% 30.00 in 7.0 mi Calm Calm - N/A   Clear
8:55 AM 59.2 °F - 45.0 °F 59% 30.01 in 10.0 mi Calm Calm - N/A   Clear
9:15 AM 62.1 °F - 46.2 °F 56% 30.01 in 10.0 mi ENE 5.8 mph - N/A   Clear
9:35 AM 64.2 °F - 47.5 °F 55% 30.02 in 10.0 mi East 6.9 mph - N/A   Clear
9:55 AM 65.8 °F - 48.6 °F 54% 30.01 in 10.0 mi East 6.9 mph - N/A   Clear
10:15 AM 67.8 °F - 50.0 °F 53% 30.02 in 10.0 mi East 6.9 mph - N/A   Clear
10:35 AM 68.7 °F - 51.4 °F 54% 30.02 in 10.0 mi East 8.1 mph - N/A   Clear
10:55 AM 70.7 °F - 53.1 °F 54% 30.02 in 10.0 mi SE 9.2 mph - N/A   Clear
11:15 AM 71.4 °F - 53.1 °F 52% 30.02 in 10.0 mi SSE 8.1 mph - N/A   Clear
11:35 AM 73.6 °F - 53.8 °F 50% 30.01 in 10.0 mi South 8.1 mph - N/A   Clear
11:55 AM 75.0 °F - 54.5 °F 49% 30.01 in 10.0 mi SE 9.2 mph - N/A   Clear
12:15 PM 76.3 °F - 55.0 °F 48% 30.00 in 10.0 mi SE 10.4 mph 16.1 mph N/A   Clear
12:35 PM 77.4 °F - 55.6 °F 47% 29.99 in 10.0 mi South 11.5 mph - N/A   Clear
12:55 PM 79.3 °F - 56.5 °F 45% 29.98 in 10.0 mi South 9.2 mph 20.7 mph N/A   Clear
1:15 PM 80.1 °F 80.3 °F 56.5 °F 44% 29.97 in 10.0 mi South 6.9 mph 20.7 mph N/A   Clear
1:35 PM 81.3 °F 81.1 °F 56.3 °F 42% 29.96 in 10.0 mi South 11.5 mph 16.1 mph N/A   Clear
1:55 PM 81.9 °F 81.4 °F 56.3 °F 41% 29.95 in 10.0 mi SSE 6.9 mph 16.1 mph N/A   Clear
2:15 PM 81.5 °F 81.3 °F 56.3 °F 42% 29.93 in 10.0 mi South 9.2 mph 16.1 mph N/A   Scattered Clouds
2:35 PM 82.9 °F 82.3 °F 56.5 °F 40% 29.92 in 10.0 mi South 8.1 mph - N/A   Scattered Clouds
2:55 PM 83.7 °F 82.7 °F 55.8 °F 38% 29.91 in 10.0 mi SSE 10.4 mph 20.7 mph N/A   Scattered Clouds
3:15 PM 84.2 °F 82.9 °F 54.9 °F 36% 29.89 in 10.0 mi South 13.8 mph 18.4 mph N/A   Clear
3:35 PM 84.9 °F 83.6 °F 54.9 °F 36% 29.87 in 7.0 mi South 9.2 mph - N/A   Clear
3:55 PM 85.5 °F 84.0 °F 54.5 °F 35% 29.86 in 7.0 mi SE 9.2 mph - N/A   Clear
4:15 PM 85.3 °F 83.9 °F 55.2 °F 36% 29.84 in 7.0 mi SE 6.9 mph - N/A   Clear
4:35 PM 85.1 °F 83.9 °F 55.8 °F 37% 29.84 in 7.0 mi South 6.9 mph 17.3 mph N/A   Clear
4:55 PM 83.8 °F 83.1 °F 57.0 °F 40% 29.83 in 7.0 mi SE 6.9 mph 17.3 mph N/A   Clear
5:15 PM 83.7 °F 83.1 °F 57.6 °F 41% 29.83 in 7.0 mi SE 12.7 mph - N/A   Clear
5:35 PM 83.5 °F 82.9 °F 57.6 °F 41% 29.82 in 7.0 mi SE 11.5 mph - N/A   Clear
5:55 PM 82.4 °F 82.2 °F 57.9 °F 43% 29.82 in 10.0 mi SE 12.7 mph 18.4 mph N/A   Clear
6:15 PM 81.3 °F 81.4 °F 57.9 °F 45% 29.82 in 7.0 mi SE 8.1 mph - N/A   Clear
6:35 PM 80.6 °F 80.9 °F 58.1 °F 46% 29.82 in 7.0 mi SE 12.7 mph - N/A   Clear
6:55 PM 79.7 °F - 57.7 °F 47% 29.83 in 10.0 mi SE 9.2 mph - N/A   Clear
7:15 PM 79.0 °F - 58.1 °F 49% 29.84 in 7.0 mi SE 9.2 mph - N/A   Clear
7:35 PM 78.4 °F - 58.8 °F 51% 29.85 in 7.0 mi East 6.9 mph - N/A   Clear
7:55 PM 77.9 °F - 59.0 °F 52% 29.85 in 7.0 mi East 8.1 mph - N/A   Clear
8:35 PM 76.5 °F - 59.2 °F 55% 29.86 in 10.0 mi East 11.5 mph - N/A   Clear
8:55 PM 75.9 °F - 59.5 °F 57% 29.87 in 7.0 mi East 6.9 mph - N/A   Clear
9:15 PM 75.4 °F - 59.5 °F 58% 29.87 in 10.0 mi East 6.9 mph - N/A   Clear
9:35 PM 75.2 °F - 59.5 °F 58% 29.88 in 7.0 mi East 6.9 mph - N/A   Clear
9:55 PM 74.8 °F - 59.5 °F 59% 29.89 in 10.0 mi East 8.1 mph - N/A   Clear
10:15 PM 74.8 °F - 59.9 °F 60% 29.90 in 7.0 mi East 10.4 mph - N/A   Clear
10:35 PM 74.5 °F - 59.9 °F 60% 29.91 in 7.0 mi East 9.2 mph - N/A   Clear
10:55 PM 73.8 °F - 59.7 °F 61% 29.92 in 10.0 mi East 9.2 mph - N/A   Clear
11:15 PM 73.0 °F - 59.0 °F 61% 29.92 in 10.0 mi East 6.9 mph - N/A   Clear
11:55 PM 72.0 °F - 58.6 °F 63% 29.94 in 7.0 mi East 9.2 mph - N/A   Clear